Change the Weather History Date:

Monday, October 29, 2012

  Actual Average (KHFF) Record (KHFF)
Temperature  
Mean Temperature 51 °F -  
Max Temperature 93 °F 68 °F 79 °F (2014)
Min Temperature 46 °F 46 °F 29 °F (2008)
Degree Days  
Heating Degree Days 14    
Growing Degree Days 1 (Base 50)    
Moisture  
Dew Point 37 °F    
Average Humidity 58    
Maximum Humidity 70    
Minimum Humidity 47    
Precipitation  
Precipitation 0.00 in - - ()
Sea Level Pressure  
Sea Level Pressure 29.56 in    
Wind  
Wind Speed 12 mph (NW)    
Max Wind Speed 20 mph    
Max Gust Speed 29 mph    
Visibility 10 miles    
Events Rain    
Averages and records for this station are not official NWS values.
T = Trace of Precipitation, MM = Missing Value Source: NWS Daily Summary

Daily Weather History Graph

Daily Weather History Graph

Search for Another Location

Airport or City:

Trip Planner

Search our weather history database for the weather conditions in past years. The results will help you decide how hot, cold, wet, or windy it might be!

Date:

Astronomy

Oct. 29, 2012 Rise Set
Actual Time 7:37 AM EDT 6:27 PM EDT
Civil Twilight 7:11 AM EDT 6:53 PM EDT
Nautical Twilight 6:41 AM EDT 7:23 PM EDT
Astronomical Twilight 6:12 AM EDT 7:52 PM EDT
Moon 6:20 PM EDT (10/29) 7:25 AM EDT (10/29)
Length of Visible Light 11h 41m
Length of Day
10h 49m
Full, 100% of the Moon is Illuminated
Oct 29
Full
Oct 29
Full
Nov 6
Last Quarter
Nov 13
New
Nov 20
First Quarter

Hourly Weather History & Observations

Time (EDT) Temp. Dew Point Humidity Pressure Visibility Wind Dir Wind Speed Gust Speed Precip Events Conditions
12:15 AM 55.8 °F 43.7 °F 64% 29.62 in 10.0 mi NW 10.4 mph 17.3 mph N/A   Scattered Clouds
12:35 AM 55.2 °F 43.5 °F 65% 29.62 in 10.0 mi NW 9.2 mph - N/A   Scattered Clouds
12:55 AM 54.7 °F 43.0 °F 65% 29.61 in 10.0 mi NW 10.4 mph - N/A   Clear
1:15 AM 54.5 °F 42.6 °F 64% 29.61 in 10.0 mi NW 8.1 mph - N/A   Scattered Clouds
1:35 AM 54.5 °F 41.9 °F 62% 29.61 in 10.0 mi NNW 9.2 mph - N/A   Mostly Cloudy
1:55 AM 54.3 °F 41.4 °F 62% 29.61 in 10.0 mi NW 6.9 mph 16.1 mph N/A   Mostly Cloudy
2:15 AM 53.8 °F 40.8 °F 62% 29.61 in 10.0 mi WNW 9.2 mph 16.1 mph N/A   Mostly Cloudy
2:35 AM 53.1 °F 40.3 °F 62% 29.61 in 10.0 mi NW 12.7 mph 17.3 mph N/A   Mostly Cloudy
2:55 AM 52.5 °F 39.4 °F 61% 29.61 in 10.0 mi NW 10.4 mph 21.9 mph N/A   Mostly Cloudy
3:15 AM 51.6 °F 38.7 °F 61% 29.61 in 10.0 mi NW 10.4 mph 17.3 mph N/A   Scattered Clouds
3:35 AM 51.1 °F 37.9 °F 61% 29.61 in 10.0 mi NW 12.7 mph 19.6 mph N/A   Mostly Cloudy
3:55 AM 50.7 °F 37.4 °F 60% 29.60 in 10.0 mi NW 12.7 mph 21.9 mph N/A   Mostly Cloudy
4:15 AM 50.4 °F 36.9 °F 60% 29.60 in 10.0 mi NW 13.8 mph 20.7 mph N/A   Overcast
4:35 AM 50.4 °F 36.7 °F 59% 29.60 in 10.0 mi NNW 13.8 mph 19.6 mph N/A   Overcast
4:55 AM 50.4 °F 36.1 °F 58% 29.61 in 10.0 mi NW 12.7 mph 24.2 mph N/A   Overcast
5:15 AM 50.2 °F 35.8 °F 58% 29.61 in 10.0 mi NW 12.7 mph 20.7 mph N/A   Overcast
5:35 AM 50.2 °F 35.6 °F 57% 29.60 in 10.0 mi NW 16.1 mph 19.6 mph N/A   Overcast
5:55 AM 50.2 °F 35.2 °F 57% 29.60 in 10.0 mi NW 15.0 mph 19.6 mph N/A   Overcast
6:15 AM 50.2 °F 35.1 °F 56% 29.60 in 10.0 mi NW 9.2 mph - N/A   Overcast
6:55 AM 50.0 °F 35.1 °F 57% 29.60 in 10.0 mi NW 10.4 mph 19.6 mph N/A   Overcast
7:15 AM 50.0 °F 34.7 °F 56% 29.59 in 10.0 mi NW 11.5 mph 19.6 mph N/A   Overcast
7:35 AM 50.0 °F 34.3 °F 55% 29.60 in 10.0 mi NNW 11.5 mph - N/A   Overcast
7:55 AM 50.0 °F 34.3 °F 55% 29.60 in 10.0 mi NW 9.2 mph 21.9 mph N/A   Overcast
8:15 AM 49.3 °F 34.7 °F 57% 29.60 in 10.0 mi NW 10.4 mph 21.9 mph N/A   Overcast
8:35 AM 49.5 °F 34.0 °F 55% 29.60 in 10.0 mi NNW 12.7 mph 21.9 mph N/A   Overcast
8:55 AM 49.5 °F 34.2 °F 56% 29.60 in 10.0 mi NW 11.5 mph 16.1 mph N/A   Overcast
9:15 AM 49.6 °F 34.3 °F 56% 29.60 in 10.0 mi NW 13.8 mph 21.9 mph N/A   Overcast
9:35 AM 49.8 °F 34.3 °F 55% 29.60 in 10.0 mi NW 13.8 mph 23.0 mph N/A   Overcast
9:55 AM 50.4 °F 34.0 °F 53% 29.59 in 10.0 mi NW 16.1 mph 23.0 mph N/A   Overcast
10:15 AM 50.7 °F 34.0 °F 53% 29.59 in 10.0 mi NW 12.7 mph 21.9 mph N/A   Overcast
10:35 AM 50.9 °F 34.0 °F 52% 29.59 in 10.0 mi NW 10.4 mph 20.7 mph N/A   Overcast
10:55 AM 51.1 °F 34.0 °F 52% 29.59 in 10.0 mi NW 13.8 mph 23.0 mph N/A   Overcast
11:15 AM 51.3 °F 34.5 °F 53% 29.58 in 10.0 mi NW 13.8 mph 20.7 mph N/A   Overcast
11:35 AM 52.0 °F 34.5 °F 51% 29.58 in 10.0 mi NW 17.3 mph 24.2 mph N/A   Overcast
11:55 AM 52.3 °F 34.5 °F 51% 29.58 in 10.0 mi WNW 17.3 mph 25.3 mph N/A   Overcast
12:15 PM 51.8 °F 34.3 °F 51% 29.57 in 10.0 mi NW 16.1 mph 25.3 mph N/A   Overcast
12:35 PM 52.7 °F 34.9 °F 51% 29.57 in 10.0 mi NW 12.7 mph 18.4 mph N/A   Overcast
12:55 PM 53.4 °F 34.9 °F 49% 29.56 in 10.0 mi WNW 13.8 mph 24.2 mph N/A   Overcast
1:15 PM 53.4 °F 34.3 °F 48% 29.55 in 10.0 mi WNW 13.8 mph 25.3 mph N/A   Overcast
1:35 PM 54.0 °F 34.3 °F 47% 29.54 in 10.0 mi West 16.1 mph 24.2 mph N/A   Overcast
1:55 PM 54.1 °F 34.3 °F 47% 29.54 in 10.0 mi WNW 12.7 mph 26.5 mph N/A   Overcast
2:15 PM 53.4 °F 34.5 °F 49% 29.54 in 10.0 mi WNW 13.8 mph 25.3 mph N/A   Overcast
2:35 PM 53.1 °F 35.2 °F 51% 29.53 in 10.0 mi WNW 12.7 mph 21.9 mph N/A   Overcast
2:55 PM 53.1 °F 35.1 °F 50% 29.52 in 10.0 mi WNW 17.3 mph 27.6 mph N/A   Overcast
3:15 PM 52.5 °F 36.0 °F 53% 29.52 in 10.0 mi NW 9.2 mph 27.6 mph N/A Rain Light Rain
3:35 PM 51.1 °F 36.9 °F 58% 29.52 in 10.0 mi WNW 18.4 mph 26.5 mph N/A   Light Drizzle
3:55 PM 51.1 °F 37.2 °F 59% 29.52 in 10.0 mi NW 11.5 mph 26.5 mph N/A Rain Light Rain
4:15 PM 50.9 °F 38.3 °F 62% 29.51 in 10.0 mi WNW 17.3 mph 24.2 mph N/A   Light Drizzle
4:35 PM 50.0 °F 38.7 °F 65% 29.51 in 10.0 mi WNW 11.5 mph 24.2 mph N/A   Overcast
4:55 PM 49.3 °F 39.4 °F 69% 29.50 in 10.0 mi WNW 12.7 mph 21.9 mph N/A Rain Light Rain
5:15 PM 48.9 °F 39.4 °F 70% 29.50 in 10.0 mi WNW 15.0 mph 28.8 mph N/A   Mostly Cloudy
5:35 PM 49.3 °F 38.3 °F 66% 29.49 in 10.0 mi West 15.0 mph 23.0 mph N/A   Light Drizzle
5:55 PM 49.3 °F 37.9 °F 65% 29.49 in 10.0 mi WNW 12.7 mph 26.5 mph N/A   Light Drizzle
6:15 PM 49.1 °F 37.6 °F 64% 29.49 in 10.0 mi WNW 15.0 mph 24.2 mph N/A   Light Drizzle
6:35 PM 48.7 °F 37.4 °F 65% 29.49 in 10.0 mi West 17.3 mph 24.2 mph N/A   Light Drizzle
6:55 PM 48.7 °F 36.7 °F 63% 29.49 in 10.0 mi West 17.3 mph 26.5 mph N/A   Overcast
7:15 PM 48.7 °F 36.0 °F 61% 29.49 in 10.0 mi West 16.1 mph 23.0 mph N/A   Overcast
7:35 PM 48.7 °F 35.4 °F 60% 29.49 in 10.0 mi WNW 11.5 mph 26.5 mph N/A   Overcast
7:55 PM 49.1 °F 34.9 °F 58% 29.48 in 10.0 mi West 15.0 mph 23.0 mph N/A   Overcast
8:15 PM 49.1 °F 34.7 °F 58% 29.48 in 10.0 mi West 12.7 mph 19.6 mph N/A   Overcast
8:35 PM 49.1 °F 34.2 °F 56% 29.49 in 10.0 mi West 19.6 mph 26.5 mph N/A   Overcast
11:35 PM 47.1 °F 34.2 °F 61% 29.47 in 10.0 mi West 15.0 mph 20.7 mph N/A Rain Light Rain
11:55 PM 46.8 °F 34.5 °F 62% 29.46 in 10.0 mi West 12.7 mph 21.9 mph N/A   Overcast